Weather History for Clinton, IA

Change the Weather History Date:

Sunday, July 1, 2012

  Actual Average Record
Temperature  
Mean Temperature 80 °F -  
Max Temperature 91 °F 84 °F 99 °F (1956)
Min Temperature 69 °F 61 °F 50 °F (1948)
Cooling Degree Days 15    
Growing Degree Days 30 (Base 50)    
Moisture  
Dew Point 68 °F    
Average Humidity 69    
Maximum Humidity 94    
Minimum Humidity 46    
Precipitation  
Precipitation 0.00 in - - ()
Sea Level Pressure  
Sea Level Pressure 29.95 in    
Wind  
Wind Speed 5 mph (South)    
Max Wind Speed 16 mph    
Max Gust Speed 20 mph    
Visibility 8 miles    
Events Thunderstorm    
Averages and records for this station are not official NWS values.
T = Trace of Precipitation, MM = Missing Value Source: NWS Daily Summary

Daily Weather History Graph

Daily Weather History Graph

Search for Another Location

Airport:

Trip Planner

Search our weather history database for the weather conditions in past years. The results will help you decide how hot, cold, wet, or windy it might be!

Date:

Astronomy

Jul. 01, 2012 Rise Set
Actual Time 5:30 AM CDT 8:40 PM CDT
Civil Twilight 4:56 AM CDT 9:14 PM CDT
Nautical Twilight 4:12 AM CDT 9:57 PM CDT
Astronomical Twilight 3:20 AM CDT 10:50 PM CDT
Moon 6:42 PM CDT (7/1) 3:18 AM CDT (7/1)
Length of Visible Light 16h 17m
Length of Day
15h 09m
Waxing Gibbous, 94% of the Moon is Illuminated
Jul 1
Waxing Gibbous
Jul 3
Full
Jul 10
Last Quarter
Jul 18
New
Jul 26
First Quarter

Hourly Weather History & Observations

Time (CDT) Temp. Heat Index Dew Point Humidity Pressure Visibility Wind Dir Wind Speed Gust Speed Precip Events Conditions
12:15 AM 71.6 °F - 68.0 °F 88% 29.91 in 4.0 mi Calm Calm - N/A   Clear
12:35 AM 71.6 °F - 66.2 °F 83% 29.92 in 3.0 mi Calm Calm - N/A   Clear
12:55 AM 71.6 °F - 68.0 °F 88% 29.92 in 3.0 mi Calm Calm - N/A   Clear
1:15 AM 69.8 °F - 66.2 °F 88% 29.92 in 3.0 mi ENE 4.6 mph - N/A   Clear
1:35 AM 69.8 °F - 66.2 °F 88% 29.92 in 3.0 mi Calm Calm - N/A   Clear
1:55 AM 69.8 °F - 66.2 °F 88% 29.92 in 3.0 mi East 4.6 mph - N/A   Clear
2:15 AM 69.8 °F - 66.2 °F 88% 29.92 in 3.0 mi ENE 3.5 mph - N/A   Clear
2:35 AM 69.8 °F - 66.2 °F 88% 29.92 in 3.0 mi ENE 3.5 mph - N/A   Clear
3:15 AM 69.8 °F - 66.2 °F 88% 29.93 in 3.0 mi NE 3.5 mph - N/A   Scattered Clouds
3:35 AM 69.8 °F - 66.2 °F 88% 29.92 in 3.0 mi ENE 6.9 mph - N/A   Partly Cloudy
3:55 AM 69.8 °F - 66.2 °F 88% 29.91 in 3.0 mi ENE 4.6 mph - N/A   Clear
4:15 AM 69.8 °F - 66.2 °F 88% 29.91 in 3.0 mi ENE 5.8 mph - N/A   Clear
4:35 AM 69.8 °F - 66.2 °F 88% 29.91 in 2.5 mi NE 5.8 mph - N/A   Clear
5:15 AM 69.8 °F - 66.2 °F 88% 29.92 in 0.8 mi NE 6.9 mph - N/A   Unknown
5:35 AM 69.8 °F - 66.2 °F 88% 29.92 in 1.0 mi East 5.8 mph - N/A   Clear
6:15 AM 71.6 °F - 68.0 °F 88% 29.93 in 0.2 mi East 6.9 mph - N/A   Unknown
6:35 AM 71.6 °F - 69.8 °F 94% 29.94 in 0.2 mi ESE 3.5 mph - N/A   Mostly Cloudy
7:15 AM 73.4 °F - 71.6 °F 94% 29.95 in 1.2 mi East 4.6 mph - N/A   Scattered Clouds
7:35 AM 75.2 °F - 71.6 °F 89% 29.95 in 2.5 mi ENE 3.5 mph - N/A   Clear
7:55 AM 75.2 °F - 71.6 °F 89% 29.95 in 5.0 mi East 4.6 mph - N/A   Clear
8:15 AM 78.8 °F - 71.6 °F 78% 29.96 in 7.0 mi East 6.9 mph - N/A   Clear
8:35 AM 78.8 °F - 71.6 °F 78% 29.97 in 8.0 mi East 3.5 mph - N/A   Clear
8:55 AM 80.6 °F 83.9 °F 69.8 °F 70% 29.99 in 10.0 mi SSE 3.5 mph - N/A   Partly Cloudy
9:15 AM 80.6 °F 84.6 °F 71.6 °F 74% 29.99 in 10.0 mi ESE 4.6 mph - N/A   Scattered Clouds
9:35 AM 80.6 °F 83.9 °F 69.8 °F 70% 30.03 in 10.0 mi SSW 16.1 mph 19.6 mph N/A   Mostly Cloudy
9:55 AM 78.8 °F - 68.0 °F 69% 30.02 in 10.0 mi WSW 11.5 mph - N/A   Scattered Clouds
10:15 AM 78.8 °F - 66.2 °F 65% 30.01 in 10.0 mi WSW 13.8 mph - N/A Thunderstorm Mostly Cloudy
10:35 AM 80.6 °F 82.3 °F 64.4 °F 58% 30.00 in 10.0 mi WSW 11.5 mph - N/A   Partly Cloudy
11:15 AM 82.4 °F 84.6 °F 66.2 °F 58% 29.97 in 10.0 mi WNW 10.4 mph - N/A   Clear
11:35 AM 84.2 °F 86.6 °F 66.2 °F 55% 29.98 in 10.0 mi WSW 4.6 mph - N/A   Clear
11:55 AM 84.2 °F 86.6 °F 66.2 °F 55% 29.98 in 9.0 mi South 5.8 mph - N/A   Clear
12:15 PM 84.2 °F 85.6 °F 64.4 °F 51% 29.98 in 10.0 mi SE 3.5 mph - N/A   Clear
12:35 PM 87.8 °F 90.4 °F 66.2 °F 49% 29.98 in 10.0 mi SE 6.9 mph - N/A   Clear
12:55 PM 87.8 °F 91.4 °F 68.0 °F 52% 29.98 in 10.0 mi SE 12.7 mph - N/A   Clear
1:15 PM 87.8 °F 90.4 °F 66.2 °F 49% 29.97 in 10.0 mi SE 8.1 mph - N/A   Clear
1:35 PM 87.8 °F 89.4 °F 64.4 °F 46% 29.96 in 10.0 mi SSE 5.8 mph - N/A   Clear
1:55 PM 87.8 °F 90.4 °F 66.2 °F 49% 29.96 in 10.0 mi WSW 6.9 mph - N/A   Clear
2:15 PM 89.6 °F 92.2 °F 66.2 °F 46% 29.96 in 10.0 mi SW 6.9 mph - N/A   Clear
2:35 PM 89.6 °F 92.2 °F 66.2 °F 46% 29.96 in 10.0 mi South 6.9 mph - N/A   Clear
2:55 PM 89.6 °F 92.2 °F 66.2 °F 46% 29.96 in 10.0 mi South 10.4 mph - N/A   Mostly Cloudy
3:15 PM 89.6 °F 92.2 °F 66.2 °F 46% 29.96 in 10.0 mi South 10.4 mph - N/A   Scattered Clouds
3:35 PM 89.6 °F 92.2 °F 66.2 °F 46% 29.96 in 10.0 mi South 9.2 mph - N/A   Scattered Clouds
4:15 PM 89.6 °F 92.2 °F 66.2 °F 46% 29.95 in 10.0 mi SSW 6.9 mph - N/A   Overcast
4:35 PM 91.4 °F 95.4 °F 68.0 °F 46% 29.94 in 10.0 mi SW 8.1 mph - N/A   Scattered Clouds
4:55 PM 91.4 °F 95.4 °F 68.0 °F 46% 29.94 in 10.0 mi SW 10.4 mph - N/A   Clear
5:15 PM 89.6 °F 93.4 °F 68.0 °F 49% 29.93 in 10.0 mi SSW 8.1 mph - N/A   Clear
5:35 PM 89.6 °F 93.4 °F 68.0 °F 49% 29.93 in 10.0 mi SSW 9.2 mph - N/A   Clear
5:55 PM 89.6 °F 93.4 °F 68.0 °F 49% 29.92 in 10.0 mi SW 9.2 mph - N/A   Clear
6:15 PM 89.6 °F 94.7 °F 69.8 °F 52% 29.93 in 10.0 mi SW 8.1 mph - N/A   Clear
6:35 PM 87.8 °F 92.6 °F 69.8 °F 55% 29.93 in 10.0 mi SW 8.1 mph - N/A   Clear
6:55 PM 87.8 °F 91.4 °F 68.0 °F 52% 29.93 in 10.0 mi WSW 4.6 mph - N/A   Clear
7:15 PM 84.2 °F 89.6 °F 71.6 °F 66% 29.94 in 10.0 mi Calm Calm - N/A   Clear
7:35 PM 84.2 °F 89.6 °F 71.6 °F 66% 29.94 in 10.0 mi WSW 3.5 mph - N/A   Clear
7:55 PM 82.4 °F 87.2 °F 71.6 °F 70% 29.94 in 10.0 mi SW 4.6 mph - N/A   Clear
8:15 PM 80.6 °F 83.9 °F 69.8 °F 70% 29.94 in 10.0 mi SW 4.6 mph - N/A   Clear
8:35 PM 80.6 °F 83.9 °F 69.8 °F 70% 29.94 in 10.0 mi SW 4.6 mph - N/A   Clear
8:55 PM 80.6 °F 83.9 °F 69.8 °F 70% 29.94 in 10.0 mi South 4.6 mph - N/A   Clear
9:15 PM 78.8 °F - 69.8 °F 74% 29.94 in 10.0 mi South 4.6 mph - N/A   Clear
9:35 PM 77.0 °F - 69.8 °F 78% 29.96 in 10.0 mi SW 5.8 mph - N/A   Clear
9:55 PM 77.0 °F - 69.8 °F 78% 29.96 in 10.0 mi SSW 3.5 mph - N/A   Clear
10:15 PM 77.0 °F - 69.8 °F 78% 29.95 in 10.0 mi South 4.6 mph - N/A   Clear
10:35 PM 75.2 °F - 68.0 °F 78% 29.96 in 10.0 mi South 3.5 mph - N/A   Clear
10:55 PM 75.2 °F - 68.0 °F 78% 29.96 in 10.0 mi South 3.5 mph - N/A   Clear
11:15 PM 75.2 °F - 68.0 °F 78% 29.96 in 9.0 mi South 3.5 mph - N/A   Clear
11:35 PM 75.2 °F - 68.0 °F 78% 29.97 in 10.0 mi South 5.8 mph - N/A   Clear
11:55 PM 75.2 °F - 68.0 °F 78% 29.97 in 10.0 mi SSE 3.5 mph - N/A   Clear